| time (UTC) | temp F | wind direction | speed knots | gust knots | rain 1hr in | rain 24hr in | rain mn in | humidity % | barometer mb |
| 20260510204554 | 55 | 150 | 0.0 | 3.5 | 0.00 | 0.00 | 0.00 | 51 | 1018.7 |
| 20260510203052 | 54 | 101 | 0.9 | 4.3 | 0.00 | 0.00 | 0.00 | 48 | 1018.7 |
| 20260510201550 | 54 | 72 | 2.6 | 6.1 | 0.00 | 0.00 | 0.00 | 50 | 1018.5 |
| 20260510200050 | 55 | 289 | 5.2 | 10.4 | 0.00 | 0.00 | 0.00 | 38 | 1018.6 |
| 20260510194602 | 55 | 327 | 5.2 | 9.6 | 0.00 | 0.00 | 0.00 | 38 | 1018.7 |
| 20260510193049 | 55 | 283 | 4.3 | 13.0 | 0.00 | 0.00 | 0.00 | 41 | 1018.8 |
| 20260510191554 | 55 | 304 | 7.8 | 12.2 | 0.00 | 0.00 | 0.00 | 38 | 1018.9 |
| 20260510190053 | 54 | 354 | 7.0 | 14.8 | 0.00 | 0.00 | 0.00 | 37 | 1018.7 |
| 20260510184547 | 55 | 319 | 6.1 | 13.0 | 0.00 | 0.01 | 0.00 | 40 | 1018.6 |
| 20260510183043 | 56 | 321 | 8.7 | 14.8 | 0.00 | 0.01 | 0.00 | 39 | 1018.4 |
| 20260510181541 | 56 | 308 | 8.7 | 13.0 | 0.00 | 0.01 | 0.00 | 38 | 1018.4 |
| 20260510180044 | 55 | 304 | 7.0 | 11.3 | 0.00 | 0.01 | 0.00 | 42 | 1018.3 |
| 20260510174539 | 54 | 297 | 5.2 | 18.2 | 0.00 | 0.01 | 0.00 | 40 | 1018.4 |
| 20260510173037 | 55 | 323 | 10.4 | 16.5 | 0.00 | 0.01 | 0.00 | 42 | 1018.4 |
| 20260510171536 | 54 | 308 | 4.3 | 14.8 | 0.00 | 0.01 | 0.00 | 43 | 1018.6 |
| 20260510170039 | 54 | 296 | 5.2 | 13.0 | 0.00 | 0.01 | 0.00 | 42 | 1018.5 |
| 20260510164534 | 54 | 329 | 2.6 | 11.3 | 0.00 | 0.01 | 0.00 | 45 | 1018.4 |
| 20260510163035 | 53 | 321 | 5.2 | 14.8 | 0.00 | 0.01 | 0.00 | 46 | 1018.4 |
| 20260510161529 | 53 | 23 | 5.2 | 13.9 | 0.00 | 0.01 | 0.00 | 44 | 1018.4 |
| 20260510160028 | 53 | 273 | 6.1 | 13.0 | 0.00 | 0.01 | 0.00 | 46 | 1018.4 |
| 20260510154526 | 52 | 344 | 6.1 | 13.0 | 0.00 | 0.01 | 0.00 | 51 | 1018.4 |
| 20260510153022 | 52 | 320 | 7.8 | 14.8 | 0.00 | 0.01 | 0.00 | 50 | 1018.2 |
| 20260510151521 | 51 | 297 | 5.2 | 11.3 | 0.00 | 0.01 | 0.00 | 52 | 1018.0 |
| 20260510150019 | 51 | 18 | 4.3 | 13.0 | 0.00 | 0.02 | 0.00 | 54 | 1018.1 |
| 20260510144527 | 50 | 315 | 6.1 | 12.2 | 0.00 | 0.02 | 0.00 | 53 | 1017.8 |
| 20260510143018 | 50 | 258 | 3.5 | 7.8 | 0.00 | 0.02 | 0.00 | 55 | 1017.5 |
| 20260510141522 | 49 | 319 | 6.1 | 11.3 | 0.00 | 0.02 | 0.00 | 55 | 1017.5 |
| 20260510140014 | 48 | 12 | 4.3 | 10.4 | 0.00 | 0.02 | 0.00 | 54 | 1017.4 |
| 20260510134511 | 48 | 333 | 4.3 | 11.3 | 0.00 | 0.02 | 0.00 | 57 | 1017.3 |
| 20260510133008 | 47 | 330 | 2.6 | 9.6 | 0.00 | 0.02 | 0.00 | 56 | 1017.1 |
| 20260510131504 | 47 | 20 | 2.6 | 7.8 | 0.00 | 0.02 | 0.00 | 60 | 1016.9 |
| 20260510130000 | 46 | 327 | 4.3 | 7.8 | 0.00 | 0.02 | 0.00 | 61 | 1017.1 |
| 20260510124558 | 46 | 333 | 2.6 | 7.8 | 0.00 | 0.02 | 0.00 | 64 | 1016.8 |
| 20260510123059 | 45 | 320 | 2.6 | 6.1 | 0.00 | 0.02 | 0.00 | 68 | 1016.8 |
| 20260510121555 | 44 | 308 | 1.7 | 4.3 | 0.00 | 0.02 | 0.00 | 73 | 1016.6 |
| 20260510120053 | 42 | 281 | 2.6 | 5.2 | 0.00 | 0.02 | 0.00 | 78 | 1016.5 |
| 20260510114552 | 41 | 315 | 2.6 | 4.3 | 0.00 | 0.02 | 0.00 | 83 | 1016.4 |
| 20260510113106 | 39 | 300 | 1.7 | 3.5 | 0.00 | 0.02 | 0.00 | 88 | 1016.4 |
| 20260510111555 | 37 | 298 | 0.0 | 1.7 | 0.00 | 0.02 | 0.00 | 92 | 1016.1 |
| 20260510110046 | 35 | 311 | 0.0 | 0.0 | 0.00 | 0.02 | 0.00 | 91 | 1015.8 |
| 20260510104550 | 35 | 310 | 0.0 | 0.0 | 0.00 | 0.02 | 0.00 | 91 | 1015.6 |
| 20260510103047 | 33 | 310 | 0.0 | 0.0 | 0.00 | 0.02 | 0.00 | 92 | 1015.5 |
| 20260510101540 | 33 | 310 | 0.0 | 0.0 | 0.00 | 0.02 | 0.00 | 92 | 1015.2 |
| 20260510100037 | 33 | 310 | 0.0 | 0.0 | 0.00 | 0.02 | 0.00 | 92 | 1014.9 |
| 20260510094536 | 33 | 314 | 0.0 | 0.9 | 0.00 | 0.02 | 0.00 | 91 | 1014.6 |
| 20260510093040 | 33 | 304 | 0.0 | 0.0 | 0.00 | 0.02 | 0.00 | 91 | 1014.5 |
| 20260510091530 | 33 | 304 | 0.0 | 0.0 | 0.00 | 0.02 | 0.00 | 90 | 1014.1 |
| 20260510090027 | 34 | 304 | 0.0 | 0.0 | 0.00 | 0.02 | 0.00 | 90 | 1013.8 |
| 20260510084528 | 35 | 304 | 0.0 | 0.0 | 0.00 | 0.02 | 0.00 | 91 | 1013.5 |
| 20260510083031 | 35 | 304 | 0.0 | 0.0 | 0.00 | 0.02 | 0.00 | 90 | 1013.3 |
| 20260510081534 | 35 | 304 | 0.0 | 1.7 | 0.00 | 0.02 | 0.00 | 90 | 1013.0 |
| 20260510080019 | 36 | 304 | 0.0 | 0.0 | 0.00 | 0.02 | 0.00 | 89 | 1012.9 |
| 20260510074515 | 36 | 304 | 0.9 | 1.7 | 0.00 | 0.02 | 0.00 | 90 | 1012.9 |
| 20260510073013 | 36 | 34 | 0.0 | 0.0 | 0.00 | 0.02 | 0.00 | 89 | 1012.6 |
| 20260510071513 | 37 | 34 | 0.0 | 0.0 | 0.00 | 0.02 | 0.00 | 88 | 1012.3 |
| 20260510070005 | 38 | 34 | 0.0 | 0.0 | 0.00 | 0.02 | 0.00 | 85 | 1012.2 |
| 20260510064502 | 39 | 34 | 0.0 | 0.0 | 0.00 | 0.02 | 0.00 | 85 | 1012.0 |
| 20260510063059 | 39 | 34 | 0.0 | 0.0 | 0.00 | 0.02 | 0.00 | 79 | 1011.9 |
| 20260510061555 | 41 | 34 | 0.0 | 0.9 | 0.00 | 0.02 | 0.00 | 78 | 1011.8 |
| 20260510060054 | 43 | 34 | 0.0 | 1.7 | 0.00 | 0.02 | 0.00 | 77 | 1011.6 |
| 20260510054549 | 43 | 34 | 0.9 | 4.3 | 0.00 | 0.02 | 0.00 | 75 | 1011.6 |
| 20260510053103 | 44 | 54 | 2.6 | 6.1 | 0.00 | 0.02 | 0.00 | 75 | 1011.4 |
| 20260510051548 | 45 | 44 | 2.6 | 6.1 | 0.00 | 0.02 | 0.00 | 74 | 1011.2 |
| 20260510050037 | 46 | 9 | 3.5 | 7.8 | 0.00 | 0.02 | 0.00 | 72 | 1010.8 |
| 20260510044546 | 48 | 31 | 7.0 | 11.3 | 0.00 | 0.02 | 0.00 | 70 | 1010.4 |
| 20260510043034 | 48 | 11 | 0.0 | 0.9 | 0.00 | 0.02 | 0.00 | 69 | 1010.0 |
| 20260510041526 | 49 | 13 | 0.0 | 3.5 | 0.00 | 0.02 | 0.00 | 67 | 1009.8 |
| 20260510040035 | 50 | 356 | 0.9 | 4.3 | 0.00 | 0.02 | 0.02 | 65 | 1009.7 |
| 20260510034522 | 51 | 356 | 1.7 | 3.5 | 0.00 | 0.02 | 0.02 | 64 | 1009.7 |
| 20260510033027 | 52 | 343 | 3.5 | 7.8 | 0.00 | 0.02 | 0.02 | 63 | 1009.4 |
| 20260510031519 | 52 | 349 | 2.6 | 5.2 | 0.00 | 0.02 | 0.02 | 64 | 1009.1 |
| 20260510030017 | 53 | 356 | 1.7 | 5.2 | 0.00 | 0.02 | 0.02 | 65 | 1009.0 |
| 20260510024517 | 53 | 344 | 3.5 | 9.6 | 0.00 | 0.02 | 0.02 | 63 | 1008.8 |
| 20260510023012 | 54 | 320 | 6.1 | 11.3 | 0.00 | 0.02 | 0.02 | 63 | 1008.6 |
| 20260510021511 | 54 | 1 | 5.2 | 10.4 | 0.00 | 0.02 | 0.02 | 64 | 1008.2 |
| 20260510020018 | 55 | 358 | 7.0 | 9.6 | 0.00 | 0.02 | 0.02 | 63 | 1007.7 |
| 20260510014509 | 56 | 344 | 4.3 | 15.6 | 0.00 | 0.02 | 0.02 | 61 | 1007.1 |
| 20260510013009 | 57 | 330 | 8.7 | 13.9 | 0.00 | 0.02 | 0.02 | 59 | 1006.6 |
| 20260510011513 | 59 | 354 | 5.2 | 14.8 | 0.00 | 0.02 | 0.02 | 56 | 1006.3 |
| 20260510010007 | 61 | 19 | 11.3 | 17.4 | 0.00 | 0.02 | 0.02 | 52 | 1005.9 |
| 20260510004506 | 61 | 314 | 1.7 | 3.5 | 0.00 | 0.02 | 0.02 | 48 | 1005.0 |
| 20260510003006 | 62 | 283 | 1.7 | 4.3 | 0.00 | 0.02 | 0.02 | 46 | 1005.0 |
| 20260510001506 | 62 | 283 | 3.5 | 11.3 | 0.00 | 0.02 | 0.02 | 45 | 1004.7 |
| 20260510000014 | 63 | 274 | 10.4 | 15.6 | 0.00 | 0.02 | 0.02 | 43 | 1004.5 |
| 20260509234507 | 63 | 286 | 10.4 | 18.2 | 0.00 | 0.02 | 0.02 | 41 | 1004.3 |
| 20260509233007 | 64 | 311 | 12.2 | 20.9 | 0.00 | 0.02 | 0.02 | 42 | 1004.2 |
| 20260509231503 | 65 | 297 | 11.3 | 18.2 | 0.00 | 0.02 | 0.02 | 45 | 1003.9 |
| 20260509230002 | 65 | 314 | 10.4 | 17.4 | 0.00 | 0.02 | 0.02 | 45 | 1003.6 |
| 20260509224500 | 65 | 285 | 5.2 | 17.4 | 0.00 | 0.02 | 0.02 | 49 | 1003.0 |
| 20260509223103 | 66 | 282 | 10.4 | 19.1 | 0.00 | 0.02 | 0.02 | 47 | 1002.7 |
| 20260509221600 | 66 | 297 | 12.2 | 26.1 | 0.00 | 0.02 | 0.02 | 46 | 1002.5 |
| 20260509214559 | 66 | 243 | 7.8 | 23.5 | 0.00 | 0.02 | 0.02 | 48 | 1002.2 |
| 20260509213101 | 66 | 285 | 7.8 | 24.3 | 0.00 | 0.02 | 0.02 | 48 | 1002.1 |
| 20260509211603 | 66 | 284 | 10.4 | 25.2 | 0.00 | 0.02 | 0.02 | 46 | 1001.9 |
| 20260509210056 | 66 | 284 | 8.7 | 23.5 | 0.00 | 0.02 | 0.02 | 48 | 1001.7 |